Terminal Aerodrome Forecast
Issued by NWS

Home | Current Version | Previous Version | Graphics & Text | Print | Product List | Glossary On
Versions: 1 2 3 4 5 6 7 8 9 10 11 12 13 14 15 16 17 18 19 20 21 22 23 24 25 26 27 28 29 30 31 32 33 34 35
000
FTUS43 KLOT 291812 AAA
TAFDPA
TAF AMD
KDPA 291812Z 2918/3018 20021G30KT P6SM -DZ BKN030 OVC040
     FM292000 21023G34KT P6SM BKN035
      TEMPO 2922/2924 5SM -SHRA
     FM300000 27012G23KT P6SM SCT025 BKN035
     FM300200 29010G20KT P6SM FEW040=

USA.gov is the U.S. government's official web portal to all federal, state and local government web resources and services.